Weather History for Kirksville, MO

Change the Weather History Date:

Friday, March 8, 2013

  Actual Average Record
Temperature  
Mean Temperature 32 °F 36 °F  
Max Temperature 40 °F 46 °F 76 °F (1974)
Min Temperature 24 °F 27 °F -1 °F (1943)
Degree Days  
Heating Degree Days 33 29  
Month to date heating degree days 311 149  
Since 1 July heating degree days 4691 4682  
Cooling Degree Days 0 0  
Month to date cooling degree days 0 0  
Year to date cooling degree days 0 0  
Moisture  
Dew Point 27 °F    
Average Humidity 78    
Maximum Humidity 92    
Minimum Humidity 64    
Precipitation  
Precipitation 0.02 in 0.08 in 2.33 in (1921)
Month to date precipitation 0.17 0.40  
Year to date precipitation 5.62 3.20  
Sea Level Pressure  
Sea Level Pressure 30.29 in    
Wind  
Wind Speed 10 mph (ESE)    
Max Wind Speed 16 mph    
Max Gust Speed 20 mph    
Visibility 7 miles    
Events Rain    
T = Trace of Precipitation, MM = Missing Value Source: NWS Daily Summary

Daily Weather History Graph

Daily Weather History Graph

Search for Another Location

Airport:

Trip Planner

Search our weather history database for the weather conditions in past years. The results will help you decide how hot, cold, wet, or windy it might be!

Date:

Astronomy

Mar. 08, 2013 Rise Set
Actual Time 6:32 AM CST 6:09 PM CST
Civil Twilight 6:05 AM CST 6:36 PM CST
Nautical Twilight 5:34 AM CST 7:08 PM CST
Astronomical Twilight 5:02 AM CST 7:40 PM CST
Moon 4:17 AM CST (3/8) 3:05 PM CST (3/8)
Length of Visible Light 12h 31m
Length of Day
11h 37m
Waning Crescent, 11% of the Moon is Illuminated
Mar 8
Waning Crescent
Mar 11
New
Mar 19
First Quarter
Mar 27
Full
Apr 2
Last Quarter

Hourly Weather History & Observations

Time (CST) Temp. Windchill Dew Point Humidity Pressure Visibility Wind Dir Wind Speed Gust Speed Precip Events Conditions
12:55 AM 28.0 °F 19.3 °F 23.0 °F 81% 30.35 in 7.0 mi East 9.2 mph - N/A   Clear
1:55 AM 27.0 °F 17.3 °F 24.1 °F 89% 30.36 in 6.0 mi ESE 10.4 mph - N/A   Clear
2:55 AM 26.1 °F 16.8 °F 23.0 °F 88% 30.34 in 5.0 mi ESE 9.2 mph - N/A   Clear
3:55 AM 25.0 °F 16.3 °F 23.0 °F 92% 30.33 in 5.0 mi ESE 8.1 mph - N/A   Clear
4:55 AM 25.0 °F 16.3 °F 23.0 °F 92% 30.34 in 4.0 mi ESE 8.1 mph - N/A   Clear
5:55 AM 25.0 °F 18.1 °F 23.0 °F 92% 30.34 in 4.0 mi ESE 5.8 mph - N/A   Clear
6:44 AM 24.8 °F 16.9 °F 21.2 °F 86% 30.29 in 2.5 mi ESE 6.9 mph - N/A   Clear
6:55 AM 24.1 °F 16.0 °F 23.0 °F 96% 30.34 in 2.5 mi ESE 6.9 mph - N/A   Clear
7:52 AM 24.8 °F 16.9 °F 23.0 °F 93% 30.32 in 3.0 mi ESE 6.9 mph - N/A   Clear
7:55 AM 25.0 °F 17.1 °F 23.0 °F 92% 30.37 in 3.0 mi ESE 6.9 mph - N/A   Clear
8:55 AM 28.9 °F 21.9 °F 25.0 °F 85% 30.36 in 5.0 mi ESE 6.9 mph - N/A   Clear
9:55 AM 34.0 °F 25.5 °F 28.0 °F 79% 30.35 in 8.0 mi SE 11.5 mph - N/A   Clear
10:55 AM 35.1 °F 27.4 °F 28.0 °F 76% 30.34 in 8.0 mi ESE 10.4 mph - N/A   Clear
11:55 AM 37.0 °F 29.8 °F 28.0 °F 70% 30.32 in 8.0 mi ESE 10.4 mph - N/A   Clear
12:55 PM 39.0 °F 32.3 °F 28.0 °F 65% 30.30 in 10.0 mi ESE 10.4 mph - N/A   Clear
1:55 PM 39.9 °F 32.9 °F 28.0 °F 63% 30.28 in 10.0 mi SE 11.5 mph - N/A   Clear
2:55 PM 39.0 °F 31.4 °F 28.0 °F 65% 30.28 in 10.0 mi SE 12.7 mph - N/A   Clear
3:55 PM 39.0 °F 32.8 °F 28.9 °F 67% 30.27 in 10.0 mi ESE 9.2 mph - N/A   Clear
4:55 PM 39.0 °F 31.4 °F 28.9 °F 67% 30.25 in 10.0 mi ESE 12.7 mph - N/A   Scattered Clouds
5:55 PM 37.9 °F 30.9 °F 28.9 °F 70% 30.24 in 10.0 mi ESE 10.4 mph - N/A   Mostly Cloudy
6:55 PM 37.9 °F 31.5 °F 30.0 °F 73% 30.21 in 10.0 mi East 9.2 mph - N/A   Overcast
7:55 PM 37.9 °F 30.5 °F 30.9 °F 76% 30.21 in 9.0 mi ESE 11.5 mph - 0.00 in Rain Light Rain
8:55 PM 37.9 °F 30.5 °F 30.0 °F 73% 30.19 in 10.0 mi ESE 11.5 mph - 0.00 in   Mostly Cloudy
9:55 PM 39.0 °F 31.8 °F 30.0 °F 70% 30.18 in 10.0 mi SE 11.5 mph - N/A   Clear
10:55 PM 37.9 °F 30.5 °F 30.0 °F 73% 30.15 in 10.0 mi SSE 11.5 mph - 0.00 in Rain Light Rain
11:55 PM 37.9 °F 31.5 °F 30.9 °F 76% 30.14 in 9.0 mi SE 9.2 mph - 0.02 in Rain Light Rain